Hourly Data Report for December 07, 2004

SHERBROOKE A
QUEBEC

45°26'00.000" N
71°41'00.000" W
241.40 m
7028124
71610
YSC

Download Data

Hourly Data (December 2004)
Hourly Data Report for December 7, 2004
TIME
LST
Temp Definition
°C
Dew Point Definition
°C
Rel Hum Definition
%
Precip. Amount Definition
mm

Wind Dir Definition
10's deg

Wind Spd Definition
km/h
Visibility Definition
km
Stn Press Definition
kPa
Hmdx Definition


Wind Chill Definition


Weather Definition


00:00 -10.3 -14.1 74   5 9 15.0 99.77   -15  
01:00 -9.9 -13.8 73   6 9 15.0 99.80   -15 Snow
02:00 -10.0 -13.3 77   6 7 3.2 99.86   -14 Snow
03:00 -10.2 -12.7 82   7 9 3.1 99.81   -15 Snow
04:00 -10.3 -12.7 83   7 11 5.6 99.72   -16 Snow
05:00 -10.0 -12.5 82   6 11 15.0 99.69   -16 Snow
06:00 -9.6 -12.4 80   6 13 6.4 99.71   -16 Snow
07:00 -9.2 -11.6 83   6 9 4.0 99.65   -14 Snow
08:00 -8.9 -11.1 84   6 11 6.4 99.62   -14 Snow
09:00 -8.4 -10.5 85   6 11 6.4 99.59   -14 Snow
10:00 -7.5 -9.7 84   6 11 9.7 99.58   -13 Snow
11:00 -6.3 -8.2 86   9 9 19.3 99.52   -11 Cloudy
12:00 -5.8 -8.1 84   6 9 19.3 99.37   -10 Cloudy
13:00 -5.2 -7.7 83   6 9 19.3 99.20   -9 Cloudy
14:00 -4.2 -6.9 81   6 9 19.3 99.07   -8 Cloudy
15:00 -3.4 -6.4 80   6 9 19.3 98.89   -7 Cloudy
16:00 -1.5 -5.9 72   12 19 19.3 98.71   -7 Cloudy
17:00 -1.3 -6.0 70   14 17 12.9 98.62   -6 Rain
18:00 -1.2 -4.9 76   14 24 8.0 98.48   -7 Rain
19:00 -1.2 -4.2 80   11 26 8.0 98.29   -8 Moderate Freezing Rain
20:00 -1.1 -4.3 79   13 17 11.3 98.17   -6 Freezing Rain
21:00 -2.0 -5.6 76   14 28 15.0 98.10   -9 Freezing Rain
22:00 -1.4 -5.1 76   13 24 15.0 97.92   -8  
23:00 -0.2 -4.4 73   13 30 15.0 97.81   -7 Rain

Notes on Data Quality.

Legend

  • E = Estimated
  • M = Missing
  • NA = Not Available*
  • [empty] = Indicates an unobserved value
Date modified: